Time,TemperatureF,DewpointF,PressureIn,WindDirection,WindDirectionDegrees,WindSpeedMPH,WindSpeedGustMPH,Humidity,HourlyPrecipIn,Conditions,Clouds,dailyrainin,SoftwareType,DateUTC
2013-03-29 00:12:00,41.0,40.0,-100.00,SE,125,0.0,3.0,95,0.00,,,-99.99,,2013-03-29 05:12:00,
2013-03-29 00:23:00,41.0,40.0,-100.00,SE,125,0.0,3.0,95,0.00,,,-99.99,,2013-03-29 05:23:00,
2013-03-29 00:33:00,41.0,40.0,-100.00,SE,125,0.0,3.0,95,0.00,,,-99.99,,2013-03-29 05:33:00,
2013-03-29 00:43:00,41.0,40.0,-100.00,SE,125,0.0,3.0,95,0.00,,,-99.99,,2013-03-29 05:43:00,
2013-03-29 01:12:00,39.0,38.0,-100.00,East,101,0.0,0.0,96,0.00,,,-99.99,,2013-03-29 06:12:00,
2013-03-29 01:23:00,39.0,38.0,-100.00,East,101,0.0,0.0,96,0.00,,,-99.99,,2013-03-29 06:23:00,
2013-03-29 01:32:00,39.0,38.0,-100.00,East,101,0.0,0.0,96,0.00,,,-99.99,,2013-03-29 06:32:00,
2013-03-29 01:42:00,39.0,38.0,-100.00,East,101,0.0,0.0,96,0.00,,,-99.99,,2013-03-29 06:42:00,
2013-03-29 02:12:00,38.0,37.0,-100.00,North,5,0.0,2.0,97,0.00,,,-99.99,,2013-03-29 07:12:00,
2013-03-29 02:22:00,38.0,37.0,-100.00,North,5,0.0,2.0,97,0.00,,,-99.99,,2013-03-29 07:22:00,
2013-03-29 02:32:00,38.0,37.0,-100.00,North,5,0.0,2.0,97,0.00,,,-99.99,,2013-03-29 07:32:00,
2013-03-29 02:42:00,38.0,37.0,-100.00,North,5,0.0,2.0,97,0.00,,,-99.99,,2013-03-29 07:42:00,
2013-03-29 03:12:00,38.0,37.0,-100.00,North,0,1.0,2.0,98,0.00,,,-99.99,,2013-03-29 08:12:00,
2013-03-29 03:22:00,38.0,37.0,-100.00,North,0,1.0,2.0,98,0.00,,,-99.99,,2013-03-29 08:22:00,
2013-03-29 03:32:00,38.0,37.0,-100.00,North,0,1.0,2.0,98,0.00,,,-99.99,,2013-03-29 08:32:00,
2013-03-29 03:42:00,38.0,37.0,-100.00,North,0,1.0,2.0,98,0.00,,,-99.99,,2013-03-29 08:42:00,
2013-03-29 04:13:00,37.0,36.0,-100.00,NNE,19,0.0,2.0,98,0.00,,,-99.99,,2013-03-29 09:13:00,
2013-03-29 04:22:00,37.0,36.0,-100.00,NNE,19,0.0,2.0,98,0.00,,,-99.99,,2013-03-29 09:22:00,
2013-03-29 04:33:00,37.0,36.0,-100.00,NNE,19,0.0,2.0,98,0.00,,,-99.99,,2013-03-29 09:33:00,
2013-03-29 04:42:00,37.0,36.0,-100.00,NNE,19,0.0,2.0,98,0.00,,,-99.99,,2013-03-29 09:42:00,
2013-03-29 05:12:00,36.0,35.0,-100.00,North,0,0.0,0.0,98,0.00,,,-99.99,,2013-03-29 10:12:00,
2013-03-29 05:23:00,36.0,35.0,-100.00,North,0,0.0,0.0,98,0.00,,,-99.99,,2013-03-29 10:23:00,
2013-03-29 05:33:00,36.0,35.0,-100.00,North,0,0.0,0.0,98,0.00,,,-99.99,,2013-03-29 10:33:00,
2013-03-29 05:42:00,36.0,35.0,-100.00,North,0,0.0,0.0,98,0.00,,,-99.99,,2013-03-29 10:42:00,
2013-03-29 06:12:00,37.0,36.0,-100.00,NNE,23,0.0,0.0,98,0.00,,,-99.99,,2013-03-29 11:12:00,
2013-03-29 06:23:00,37.0,36.0,-100.00,NNE,23,0.0,0.0,98,0.00,,,-99.99,,2013-03-29 11:23:00,
2013-03-29 06:32:00,37.0,36.0,-100.00,NNE,23,0.0,0.0,98,0.00,,,-99.99,,2013-03-29 11:32:00,
2013-03-29 06:42:00,37.0,36.0,-100.00,NNE,23,0.0,0.0,98,0.00,,,-99.99,,2013-03-29 11:42:00,
2013-03-29 07:12:00,35.0,34.0,-100.00,ENE,57,0.0,0.0,98,0.00,,,-99.99,,2013-03-29 12:12:00,
2013-03-29 07:22:00,35.0,34.0,-100.00,ENE,57,0.0,0.0,98,0.00,,,-99.99,,2013-03-29 12:22:00,
2013-03-29 07:32:00,35.0,34.0,-100.00,ENE,57,0.0,0.0,98,0.00,,,-99.99,,2013-03-29 12:32:00,
2013-03-29 07:42:00,35.0,34.0,-100.00,ENE,57,0.0,0.0,98,0.00,,,-99.99,,2013-03-29 12:42:00,
2013-03-29 08:12:00,40.0,39.0,-100.00,NNE,25,0.0,0.0,98,0.00,,,-99.99,,2013-03-29 13:12:00,
2013-03-29 08:22:00,40.0,39.0,-100.00,NNE,25,0.0,0.0,98,0.00,,,-99.99,,2013-03-29 13:22:00,
2013-03-29 08:32:00,40.0,39.0,-100.00,NNE,25,0.0,0.0,98,0.00,,,-99.99,,2013-03-29 13:32:00,
2013-03-29 08:42:00,40.0,39.0,-100.00,NNE,25,0.0,0.0,98,0.00,,,-99.99,,2013-03-29 13:42:00,
2013-03-29 09:12:00,56.0,55.0,-100.00,South,169,1.0,2.0,98,0.00,,,-99.99,,2013-03-29 14:12:00,
2013-03-29 09:22:00,56.0,55.0,-100.00,South,169,1.0,2.0,98,0.00,,,-99.99,,2013-03-29 14:22:00,
2013-03-29 09:32:00,56.0,55.0,-100.00,South,169,1.0,2.0,98,0.00,,,-99.99,,2013-03-29 14:32:00,
2013-03-29 09:42:00,56.0,55.0,-100.00,South,169,1.0,2.0,98,0.00,,,-99.99,,2013-03-29 14:42:00,
2013-03-29 10:12:00,64.0,52.0,-100.00,West,260,2.0,4.0,66,0.00,,,-99.99,,2013-03-29 15:12:00,
2013-03-29 10:22:00,64.0,52.0,-100.00,West,260,2.0,4.0,66,0.00,,,-99.99,,2013-03-29 15:22:00,
2013-03-29 10:33:00,64.0,52.0,-100.00,West,260,2.0,4.0,66,0.00,,,-99.99,,2013-03-29 15:33:00,
2013-03-29 10:43:00,64.0,52.0,-100.00,West,260,2.0,4.0,66,0.00,,,-99.99,,2013-03-29 15:43:00,
2013-03-29 11:13:00,69.0,47.0,-100.00,South,174,4.0,7.0,46,0.00,,,-99.99,,2013-03-29 16:13:00,
2013-03-29 11:23:00,69.0,47.0,-100.00,South,174,4.0,7.0,46,0.00,,,-99.99,,2013-03-29 16:23:00,
2013-03-29 11:32:00,69.0,47.0,-100.00,South,174,4.0,7.0,46,0.00,,,-99.99,,2013-03-29 16:32:00,
2013-03-29 11:42:00,69.0,47.0,-100.00,South,174,4.0,7.0,46,0.00,,,-99.99,,2013-03-29 16:42:00,
2013-03-29 12:12:00,70.0,43.0,-100.00,South,177,5.0,10.0,38,0.00,,,-99.99,,2013-03-29 17:12:00,
2013-03-29 12:22:00,70.0,43.0,-100.00,South,177,5.0,10.0,38,0.00,,,-99.99,,2013-03-29 17:22:00,
2013-03-29 12:33:00,70.0,43.0,-100.00,South,177,5.0,10.0,38,0.00,,,-99.99,,2013-03-29 17:33:00,
2013-03-29 12:42:00,70.0,43.0,-100.00,South,177,5.0,10.0,38,0.00,,,-99.99,,2013-03-29 17:42:00,
2013-03-29 13:12:00,71.0,35.0,-100.00,WSW,249,7.0,15.0,27,0.00,,,0.00,,2013-03-29 18:12:00,
2013-03-29 13:23:00,71.0,35.0,-100.00,WSW,249,7.0,15.0,27,0.00,,,0.00,,2013-03-29 18:23:00,
2013-03-29 13:32:00,71.0,35.0,-100.00,WSW,249,7.0,15.0,27,0.00,,,0.00,,2013-03-29 18:32:00,
2013-03-29 13:42:00,71.0,35.0,-100.00,WSW,249,7.0,15.0,27,0.00,,,0.00,,2013-03-29 18:42:00,
2013-03-29 14:12:00,71.0,38.0,-100.00,SW,234,7.0,12.0,30,0.00,,,0.00,,2013-03-29 19:12:00,
2013-03-29 14:23:00,71.0,38.0,-100.00,SW,234,7.0,12.0,30,0.00,,,0.00,,2013-03-29 19:23:00,
2013-03-29 14:32:00,71.0,38.0,-100.00,SW,234,7.0,12.0,30,0.00,,,0.00,,2013-03-29 19:32:00,
2013-03-29 14:42:00,71.0,38.0,-100.00,SW,234,7.0,12.0,30,0.00,,,0.00,,2013-03-29 19:42:00,
2013-03-29 15:12:00,71.0,43.0,-100.00,SW,222,6.0,14.0,36,0.00,,,0.00,,2013-03-29 20:12:00,
2013-03-29 15:22:00,71.0,43.0,-100.00,SW,222,6.0,14.0,36,0.00,,,0.00,,2013-03-29 20:22:00,
2013-03-29 15:33:00,71.0,43.0,-100.00,SW,222,6.0,14.0,36,0.00,,,0.00,,2013-03-29 20:33:00,
2013-03-29 15:42:00,71.0,43.0,-100.00,SW,222,6.0,14.0,36,0.00,,,0.00,,2013-03-29 20:42:00,
2013-03-29 16:12:00,71.0,47.0,-100.00,WSW,258,8.0,16.0,43,0.00,,,0.00,,2013-03-29 21:12:00,
2013-03-29 16:22:00,71.0,47.0,-100.00,WSW,258,8.0,16.0,43,0.00,,,0.00,,2013-03-29 21:22:00,
2013-03-29 16:33:00,71.0,47.0,-100.00,WSW,258,8.0,16.0,43,0.00,,,0.00,,2013-03-29 21:33:00,
2013-03-29 16:42:00,71.0,47.0,-100.00,WSW,258,8.0,16.0,43,0.00,,,0.00,,2013-03-29 21:42:00,
2013-03-29 17:12:00,71.0,51.0,-100.00,SW,226,6.0,13.0,49,0.00,,,0.00,,2013-03-29 22:12:00,
2013-03-29 17:23:00,71.0,51.0,-100.00,SW,226,6.0,13.0,49,0.00,,,0.00,,2013-03-29 22:23:00,
2013-03-29 17:33:00,71.0,51.0,-100.00,SW,226,6.0,13.0,49,0.00,,,0.00,,2013-03-29 22:33:00,
2013-03-29 17:42:00,71.0,51.0,-100.00,SW,226,6.0,13.0,49,0.00,,,0.00,,2013-03-29 22:42:00,
2013-03-29 18:12:00,69.0,51.0,-100.00,West,264,6.0,14.0,52,0.00,,,0.00,,2013-03-29 23:12:00,
2013-03-29 18:22:00,69.0,51.0,-100.00,West,264,6.0,14.0,52,0.00,,,0.00,,2013-03-29 23:22:00,
2013-03-29 18:32:00,69.0,51.0,-100.00,West,264,6.0,14.0,52,0.00,,,0.00,,2013-03-29 23:32:00,
2013-03-29 18:42:00,69.0,51.0,-100.00,West,264,6.0,14.0,52,0.00,,,0.00,,2013-03-29 23:42:00,
2013-03-29 19:12:00,66.0,50.0,-100.00,WSW,242,4.0,10.0,57,0.00,,,0.00,,2013-03-30 00:12:00,
2013-03-29 19:22:00,66.0,50.0,-100.00,WSW,242,4.0,10.0,57,0.00,,,0.00,,2013-03-30 00:22:00,
2013-03-29 19:32:00,66.0,50.0,-100.00,WSW,242,4.0,10.0,57,0.00,,,0.00,,2013-03-30 00:32:00,
2013-03-29 19:42:00,66.0,50.0,-100.00,WSW,242,4.0,10.0,57,0.00,,,0.00,,2013-03-30 00:42:00,
2013-03-29 20:12:00,58.0,49.0,-100.00,SW,229,1.0,6.0,73,0.00,,,0.00,,2013-03-30 01:12:00,
2013-03-29 20:22:00,58.0,49.0,-100.00,SW,229,1.0,6.0,73,0.00,,,0.00,,2013-03-30 01:22:00,
2013-03-29 20:33:00,58.0,49.0,-100.00,SW,229,1.0,6.0,73,0.00,,,0.00,,2013-03-30 01:33:00,
2013-03-29 20:43:00,58.0,49.0,-100.00,SW,229,1.0,6.0,73,0.00,,,0.00,,2013-03-30 01:43:00,
2013-03-29 21:12:00,54.0,51.0,-100.00,SSW,203,1.0,3.0,88,0.00,,,0.00,,2013-03-30 02:12:00,
2013-03-29 21:22:00,54.0,51.0,-100.00,SSW,203,1.0,3.0,88,0.00,,,0.00,,2013-03-30 02:22:00,
2013-03-29 21:32:00,54.0,51.0,-100.00,SSW,203,1.0,3.0,88,0.00,,,0.00,,2013-03-30 02:32:00,
2013-03-29 21:42:00,54.0,51.0,-100.00,SSW,203,1.0,3.0,88,0.00,,,0.00,,2013-03-30 02:42:00,
2013-03-29 22:12:00,53.0,52.0,-100.00,WNW,298,0.0,2.0,95,0.00,,,0.00,,2013-03-30 03:12:00,
2013-03-29 22:22:00,53.0,52.0,-100.00,WNW,298,0.0,2.0,95,0.00,,,0.00,,2013-03-30 03:22:00,
2013-03-29 22:33:00,53.0,52.0,-100.00,WNW,298,0.0,2.0,95,0.00,,,0.00,,2013-03-30 03:33:00,
2013-03-29 22:43:00,53.0,52.0,-100.00,WNW,298,0.0,2.0,95,0.00,,,0.00,,2013-03-30 03:43:00,
2013-03-29 23:12:00,51.0,50.0,-100.00,WNW,292,0.0,0.0,96,0.00,,,0.00,,2013-03-30 04:12:00,
2013-03-29 23:23:00,51.0,50.0,-100.00,WNW,292,0.0,0.0,96,0.00,,,0.00,,2013-03-30 04:23:00,
2013-03-29 23:32:00,51.0,50.0,-100.00,WNW,292,0.0,0.0,96,0.00,,,0.00,,2013-03-30 04:32:00,
2013-03-29 23:43:00,51.0,50.0,-100.00,WNW,292,0.0,0.0,96,0.00,,,0.00,,2013-03-30 04:43:00,